Cleveland Burke, OH

11:50 PM EDT on May 25, 2017 (GMT -0400)
Burke Lakefront

Weather History for KBKL - January, 2002

Change the Weather History Date:

Saturday, January 26, 2002

  Actual Average Record
Temperature  
Mean Temperature 45 °F -  
Max Temperature 53 °F 33 °F 53 °F (2002)
Min Temperature 37 °F 21 °F 7 °F (2014)
Degree Days  
Heating Degree Days 20    
Moisture  
Dew Point 21 °F    
Average Humidity 38    
Maximum Humidity 49    
Minimum Humidity 28    
Precipitation  
Precipitation 0.00 in - - ()
Sea Level Pressure  
Sea Level Pressure 30.12 in    
Wind  
Wind Speed 16 mph (SSW)    
Max Wind Speed 22 mph    
Max Gust Speed 30 mph    
Visibility 10 miles    
Events      
Averages and records for this station are not official NWS values.
T = Trace of Precipitation, MM = Missing Value Source: NWS Daily Summary

Daily Weather History Graph

Daily Weather History Graph

Search for Another Location

Airport or City:

Trip Planner

Search our weather history database for the weather conditions in past years. The results will help you decide how hot, cold, wet, or windy it might be!

Date:

Astronomy

Jan. 26, 2002 Rise Set
Actual Time 7:44 AM EST 5:35 PM EST
Civil Twilight 7:14 AM EST 6:04 PM EST
Nautical Twilight 6:40 AM EST 6:38 PM EST
Astronomical Twilight 6:07 AM EST 7:11 PM EST
Moon 3:05 PM EST 5:48 AM EST
Length of Visible Light 10h 50m
Length of Day
9h 51m
Waxing Gibbous, 93% of the Moon is Illuminated
Jan 26
Waxing Gibbous
Jan 28
Full
Feb 4
Last Quarter
Feb 12
New
Feb 20
First Quarter

Hourly Weather History & Observations

Time (EST) Temp. Windchill Dew Point Humidity Pressure Visibility Wind Dir Wind Speed Gust Speed Precip Events Conditions
12:53 AM 39.0 °F 31.0 °F 21.0 °F 49% 30.12 in 10.0 mi SSW 13.8 mph 21.9 mph N/A   Clear
1:53 AM 37.9 °F 29.6 °F 19.0 °F 47% 30.14 in 10.0 mi SW 13.8 mph - N/A   Clear
2:53 AM 39.0 °F 29.6 °F 18.0 °F 43% 30.15 in 10.0 mi SW 18.4 mph - N/A   Clear
3:53 AM 39.0 °F 30.6 °F 18.0 °F 43% 30.14 in 10.0 mi SSW 15.0 mph 25.3 mph N/A   Clear
4:53 AM 39.0 °F 30.3 °F 18.0 °F 43% 30.14 in 10.0 mi SW 16.1 mph 21.9 mph N/A   Clear
5:53 AM 39.0 °F 29.3 °F 19.0 °F 45% 30.14 in 10.0 mi SSW 19.6 mph 24.2 mph N/A   Clear
6:53 AM 39.0 °F 28.8 °F 19.0 °F 45% 30.14 in 10.0 mi SSW 21.9 mph 29.9 mph N/A   Clear
7:53 AM 39.9 °F 30.2 °F 17.1 °F 40% 30.15 in 10.0 mi SSW 20.7 mph 25.3 mph N/A   Clear
8:53 AM 41.0 °F 33.1 °F 18.0 °F 40% 30.15 in 10.0 mi SSW 15.0 mph 24.2 mph N/A   Partly Cloudy
9:53 AM 44.1 °F 37.4 °F 19.9 °F 38% 30.16 in 10.0 mi SSW 13.8 mph - N/A   Partly Cloudy
10:53 AM 48.0 °F - 21.9 °F 36% 30.14 in 10.0 mi SSW 16.1 mph - N/A   Clear
11:53 AM 51.1 °F - 23.0 °F 33% 30.14 in 10.0 mi SW 15.0 mph - N/A   Clear
12:53 PM 51.1 °F - 23.0 °F 33% 30.12 in 10.0 mi SSW 13.8 mph - N/A   Clear
1:53 PM 51.1 °F - 21.9 °F 32% 30.10 in 10.0 mi SSW 16.1 mph 25.3 mph N/A   Clear
2:53 PM 53.1 °F - 23.0 °F 31% 30.09 in 10.0 mi SSW 12.7 mph - N/A   Clear
3:53 PM 53.1 °F - 21.0 °F 29% 30.08 in 10.0 mi SSW 17.3 mph - N/A   Clear
4:53 PM 52.0 °F - 19.9 °F 28% 30.08 in 10.0 mi SSW 18.4 mph 24.2 mph N/A   Clear
5:53 PM 48.9 °F - 21.9 °F 35% 30.09 in 10.0 mi South 11.5 mph - N/A   Clear
6:53 PM 48.0 °F - 21.9 °F 36% 30.08 in 10.0 mi South 11.5 mph - N/A   Clear
7:53 PM 46.9 °F - 21.9 °F 37% 30.09 in 10.0 mi South 15.0 mph - N/A   Clear
8:53 PM 46.9 °F - 21.0 °F 36% 30.09 in 10.0 mi South 17.3 mph 23.0 mph N/A   Clear
9:53 PM 46.0 °F 39.9 °F 21.9 °F 39% 30.09 in 10.0 mi SSW 13.8 mph 20.7 mph N/A   Clear
10:53 PM 46.0 °F 38.5 °F 21.9 °F 39% 30.08 in 10.0 mi South 19.6 mph 25.3 mph N/A   Clear
11:53 PM 45.0 °F 39.3 °F 23.0 °F 42% 30.09 in 10.0 mi South 11.5 mph - N/A   Clear